Regional Weather Roundup
Issued by NWS

Home | Current Version | Previous Version | Text Only | Print | Product List | Glossary Off
Versions: 1 2 3 4 5 6 7 8 9 10 11 12 13 14 15 16 17 18 19 20 21 22 23 24 25 26 27 28 29 30 31 32 33 34 35 36 37 38 39 40 41 42 43 44 45 46 47 48 49 50

000
ASUS43 KDTX 090101
RWRMI
MICHIGAN HOURLY REGIONAL WEATHER ROUNDUP
NATIONAL WEATHER SERVICE DETROIT/PONTIAC MI
800 PM EST MON FEB 08 2016

NOTE: "FAIR" INDICATES FEW OR NO CLOUDS BELOW 12,000 FEET WITH NO
SIGNIFICANT WEATHER AND/OR OBSTRUCTION TO VISIBILITY.

MIZ047>049-052>055-059>063-066>070-074>076-081>083-090200-
SOUTHEAST LOWER MICHIGAN

CITY           SKY/WX    TMP DP  RH WIND       PRES   REMARKS
ADRIAN         CLOUDY    33  25  72 W7        29.62S WCI  27
ALMA           CLOUDY    36  28  72 W5        29.60S WCI  32
ANN ARBOR      CLOUDY    35  28  75 W12       29.59S WCI  27
BAD AXE        MIX PCPN  35  33  92 W5        29.56F WCI  31
CARO           CLOUDY    36  30  80 SW3       29.55F
DETROIT CITY   CLOUDY    38  28  67 CALM      29.59S
DETROIT        CLOUDY    35  32  88 SW5       29.60F WCI  31
FLINT          CLOUDY    37  29  72 SW7       29.58F WCI  32
GROSSE ILE     LGT SNOW  34  32  93 CALM      29.59S
HILLSDALE      MOCLDY    31  28  90 W13       29.61S WCI  21
HOWELL         CLOUDY    35  28  75 W7        29.59S WCI  29

CITY           SKY/WX    TMP DP  RH WIND       PRES   REMARKS
JACKSON        MOCLDY    33  27  78 W9        29.61R WCI  25
LAMBERTVILLE   CLOUDY    35  27  74 W7        29.62S WCI  29
LANSING        CLOUDY    35  28  75 W12       29.61S WCI  27
LAPEER         CLOUDY    36  30  79 W5        29.57F WCI  32
MASON          CLOUDY    34  29  81 W8        29.60S WCI  27
MONROE         CLOUDY    35  32  88 CALM      29.60S
MT. CLEMENS    CLOUDY    38  28  67 W7        29.56S WCI  32
PONTIAC        CLOUDY    36  27  69 W8        29.57S WCI  30
PORT HOPE        N/A     33  32  96 W7        29.54F WCI  27
PORT HURON     CLOUDY    34  32  93 W5        29.57F WCI  30
TRI CITIES     CLOUDY    36  26  67 W8        29.58F WCI  30
MIDLAND        FAIR      35  24  63 W5        29.58S WCI  31
TROY           CLOUDY    38  29  69 W3        29.59F
SAGINAW HB     CLOUDY    36  30  80 W7        29.57F WCI  30
$$
MIZ043>046-050>051-056>058-064>065-071>073-077>080-090200-
SOUTHWEST LOWER MICHIGAN

CITY           SKY/WX    TMP DP  RH WIND       PRES   REMARKS
BATTLE CREEK   LGT SNOW  32  30  92 W12       29.63S FOG     WCI  23
BENTON HARBOR  LGT SNOW  30  27  88 W9        29.70S FOG     WCI  22
BIG RAPIDS     CLOUDY    35  27  71 W3        29.59F
COLDWATER      LGT SNOW  32  31  96 W10       29.64S WCI  23
FREMONT        CLOUDY    33  32  96 W7        29.62S WCI  27
HOLLAND        CLOUDY    33  30  88 W9        29.66S WCI  25
GRAND RAPIDS   FLURRIES  33  30  88 W9        29.63R WCI  25
IONIA          CLOUDY    34  28  79 W8        29.60S WCI  27
KALAMAZOO      LGT SNOW  32  28  85 W8        29.65R FOG     WCI  25
LUDINGTON      CLOUDY    32  30  92 N10       29.65S WCI  24
MARSHALL       CLOUDY    32  30  90 W5        29.62S WCI  28
MOUNT PLEASANT CLOUDY    34  26  72 W3        29.58F
MUSKEGON       CLOUDY    34  29  82 W9        29.64F WCI  27
SOUTH HAVEN    LGT SNOW  31  29  96 W9        29.68F WCI  22
$$
MIZ016>042-090200-
NORTHERN LOWER MICHIGAN

CITY           SKY/WX    TMP DP  RH WIND       PRES   REMARKS
ALPENA         CLOUDY    35  32  88 NW6       29.59F WCI  30
BEAVER ISLAND  CLOUDY    25  21  85 NW10G20   29.69R WCI  15
BELLAIRE       CLOUDY    31  28  85 N8        29.65S WCI  24
CADILLAC       CLOUDY    32  31  94 N10G18    29.59S WCI  24
CHARLEVOIX     CLOUDY    29  26  89 N15       29.69R WCI  18
FRANKFORT      CLOUDY    31  26  84 N9        29.67S WCI  23
GAYLORD        CLOUDY    31  29  92 NW6       29.59S WCI  25
GRAYLING       CLOUDY    33  30  90 NW10      29.59S WCI  25
HARBOR SPRINGS CLOUDY    30  28  90 N9        29.64R FOG     WCI  22
HOUGHTON LAKE  CLOUDY    34  28  79 NW9       29.57S WCI  27
MANISTEE       CLOUDY    32  27  80 N10       29.66S WCI  24
OSCODA         CLOUDY    33  32  95 N5        29.56F WCI  29
PELLSTON       CLOUDY    30  26  85 NW14      29.65R WCI  19
ROGERS CITY    CLOUDY    34  32  92 N7        29.61F WCI  28
TRAVERSE CITY  FLURRIES  32  26  78 N10       29.65R WCI  24
$$
MIZ007>008-015-090200-
EASTERN UPPER MICHIGAN

CITY           SKY/WX    TMP DP  RH WIND       PRES   REMARKS
KINROSS        CLOUDY    28  27  93 NW12G22   29.64R WCI  18
MACKINAC ISLAN CLOUDY    29  29 100 N10       29.63S WCI  20
NEWBERRY       CLOUDY    24  21  89 NW12      29.67S WCI  13
S. S. MARIE    CLOUDY    29  25  85 NW10G21   29.64S WCI  20
$$
MIZ004>006-011>014-085-090200-
CENTRAL UPPER MICHIGAN

CITY           SKY/WX    TMP DP  RH WIND       PRES   REMARKS
MANISTIQUE     CLOUDY    20  14  78 N15G22    29.70S WCI   7
ESCANABA       CLOUDY    19  12  73 N8        29.75R WCI   9
MENOMINEE      CLOUDY    19  16  86 N12G18    29.75R WCI   7
SAWYER-GWINN   FLURRIES  14   9  79 N12G17    29.72S WCI   0
$$
MIZ001>003-009>011-084-090200-
WESTERN UPPER MICHIGAN

CITY           SKY/WX    TMP DP  RH WIND       PRES   REMARKS
IRON MOUNTAIN  LGT SNOW  17  11  77 NW10      29.72S WCI   5
HOUGHTON       LGT SNOW  14   8  77 NW14      29.76S WCI  -1
COPPER HARBOR    N/A     17  13  84 N26G36    29.77S WCI  -2
IRONWOOD       CLOUDY    14  10  85 NW13G20   29.79S WCI   0
$$

ABBREVIATIONS USED IN REMARKS
   TC - TEMPERATURE IN CELSIUS
  WCI - WIND CHILL INDEX
   HX - HEAT INDEX
  VSB - VISIBILITY




USA.gov is the U.S. government's official web portal to all federal, state and local government web resources and services.